• In Russia
  • List of Countries
  • For 7 days
  • Water Temperature
  • Satellite Maps
  • Weather Map
  • Weather Widgets
  • user-avatar
    Login

    Hourly Weather Balho

    Today, 21 March, Thursday

    Time Temperature Precipitation Wind Pressure Humidity
    00:00 +32°C° 0 mm 4 mps 735 mmHg 44%
    01:00 +30°C° 0 mm 4 mps 735 mmHg 49%
    02:00 +30°C° 0 mm 4 mps 734 mmHg 53%
    03:00 +29°C° 0 mm 3 mps 734 mmHg 57%
    04:00 +29°C° 0 mm 3 mps 735 mmHg 60%
    05:00 +28°C° 0 mm 3 mps 735 mmHg 63%
    06:00 +28°C° 0 mm 3 mps 735 mmHg 65%
    07:00 +29°C° 0 mm 3 mps 736 mmHg 60%
    08:00 +30°C° 0 mm 3 mps 736 mmHg 55%
    09:00 +31°C° 0 mm 3 mps 737 mmHg 50%
    10:00 +34°C° 0 mm 3 mps 737 mmHg 42%
    11:00 +36°C° 0 mm 4 mps 736 mmHg 34%
    12:00 +38°C° 0 mm 4 mps 736 mmHg 26%
    13:00 +40°C° 0 mm 4 mps 736 mmHg 24%
    14:00 +40°C° 0 mm 4 mps 735 mmHg 22%
    15:00 +41°C° 0 mm 5 mps 734 mmHg 20%
    16:00 +40°C° 0 mm 5 mps 734 mmHg 21%
    17:00 +40°C° 0 mm 5 mps 734 mmHg 23%
    18:00 +39°C° 0 mm 6 mps 734 mmHg 24%
    19:00 +36°C° 0 mm 5 mps 734 mmHg 29%
    20:00 +35°C° 0 mm 5 mps 735 mmHg 35%
    21:00 +33°C° 0 mm 5 mps 735 mmHg 40%
    22:00 +33°C° 0 mm 5 mps 735 mmHg 44%
    23:00 +32°C° 0 mm 4 mps 735 mmHg 47%

    Tomorrow, 22 March, Friday

    Time Temperature Precipitation Wind Pressure Humidity
    00:00 +30°C° 0 mm 4 mps 735 mmHg 51%
    01:00 +30°C° 0 mm 4 mps 735 mmHg 55%
    02:00 +29°C° 0 mm 3 mps 735 mmHg 58%
    03:00 +29°C° 0 mm 3 mps 734 mmHg 61%
    04:00 +29°C° 0 mm 3 mps 735 mmHg 63%
    05:00 +28°C° 0 mm 2 mps 735 mmHg 65%
    06:00 +28°C° 0 mm 2 mps 735 mmHg 67%
    07:00 +29°C° 0 mm 2 mps 736 mmHg 62%
    08:00 +30°C° 0 mm 2 mps 737 mmHg 56%
    09:00 +31°C° 0 mm 3 mps 737 mmHg 51%
    10:00 +34°C° 0 mm 3 mps 737 mmHg 42%
    11:00 +36°C° 0 mm 3 mps 737 mmHg 34%
    12:00 +38°C° 0 mm 3 mps 737 mmHg 26%
    13:00 +38°C° 0 mm 3 mps 736 mmHg 24%
    14:00 +39°C° 0 mm 3 mps 735 mmHg 22%
    15:00 +40°C° 0 mm 3 mps 734 mmHg 20%
    16:00 +41°C° 0 mm 4 mps 734 mmHg 21%
    17:00 +40°C° 0 mm 4 mps 734 mmHg 22%
    18:00 +40°C° 0 mm 5 mps 734 mmHg 23%
    19:00 +37°C° 0 mm 5 mps 734 mmHg 28%
    20:00 +36°C° 0 mm 5 mps 735 mmHg 33%
    21:00 +34°C° 0 mm 5 mps 735 mmHg 38%
    22:00 +34°C° 0 mm 5 mps 735 mmHg 42%
    23:00 +33°C° 0 mm 4 mps 735 mmHg 45%

    Day after tomorrow, 23 March, Saturday

    Time Temperature Precipitation Wind Pressure Humidity
    00:00 +32°C° 0 mm 4 mps 735 mmHg 49%
    01:00 +32°C° 0 mm 4 mps 735 mmHg 53%
    02:00 +30°C° 0 mm 3 mps 735 mmHg 57%
    03:00 +30°C° 0 mm 3 mps 734 mmHg 61%
    04:00 +29°C° 0 mm 3 mps 735 mmHg 63%
    05:00 +29°C° 0 mm 3 mps 735 mmHg 65%
    06:00 +29°C° 0 mm 2 mps 735 mmHg 67%
    07:00 +30°C° 0 mm 2 mps 736 mmHg 60%
    08:00 +31°C° 0 mm 2 mps 737 mmHg 53%
    09:00 +32°C° 0 mm 2 mps 737 mmHg 47%
    10:00 +35°C° 0 mm 3 mps 737 mmHg 39%
    11:00 +36°C° 0 mm 3 mps 737 mmHg 30%
    12:00 +38°C° 0 mm 4 mps 736 mmHg 22%
    13:00 +40°C° 0 mm 4 mps 735 mmHg 22%
    14:00 +40°C° 0 mm 4 mps 734 mmHg 21%
    15:00 +41°C° 0 mm 4 mps 734 mmHg 20%
    16:00 +41°C° 0 mm 4 mps 734 mmHg 22%
    17:00 +40°C° 0 mm 4 mps 734 mmHg 24%
    18:00 +40°C° 0 mm 5 mps 734 mmHg 26%
    19:00 +37°C° 0 mm 5 mps 734 mmHg 33%
    20:00 +35°C° 0 mm 5 mps 735 mmHg 40%
    21:00 +34°C° 0 mm 5 mps 735 mmHg 48%
    22:00 +33°C° 0 mm 5 mps 735 mmHg 50%
    23:00 +33°C° 0 mm 4 mps 735 mmHg 52%

    24 March, Sunday

    Time Temperature Precipitation Wind Pressure Humidity
    00:00 +32°C° 0 mm 4 mps 735 mmHg 54%
    01:00 +31°C° 0 mm 3 mps 734 mmHg 56%
    02:00 +30°C° 0 mm 3 mps 734 mmHg 59%
    03:00 +30°C° 0 mm 3 mps 734 mmHg 61%
    04:00 +29°C° 0 mm 3 mps 734 mmHg 62%
    05:00 +29°C° 0 mm 2 mps 734 mmHg 64%
    06:00 +29°C° 0 mm 2 mps 734 mmHg 65%
    07:00 +30°C° 0 mm 3 mps 735 mmHg 60%
    08:00 +31°C° 0 mm 3 mps 736 mmHg 55%
    09:00 +33°C° 0 mm 3 mps 736 mmHg 49%
    10:00 +35°C° 0 mm 4 mps 736 mmHg 44%
    11:00 +36°C° 0 mm 5 mps 735 mmHg 38%
    12:00 +39°C° 0 mm 6 mps 734 mmHg 32%
    13:00 +40°C° 0 mm 5 mps 733 mmHg 31%
    14:00 +40°C° 0 mm 5 mps 733 mmHg 31%
    15:00 +40°C° 0 mm 5 mps 732 mmHg 30%
    16:00 +40°C° 0 mm 5 mps 732 mmHg 32%
    17:00 +40°C° 0 mm 5 mps 732 mmHg 33%
    18:00 +39°C° 0 mm 5 mps 732 mmHg 34%
    19:00 +37°C° 0 mm 5 mps 732 mmHg 40%
    20:00 +36°C° 0 mm 5 mps 733 mmHg 46%
    21:00 +34°C° 0 mm 5 mps 733 mmHg 52%
    22:00 +34°C° 0 mm 5 mps 733 mmHg 53%
    23:00 +33°C° 0 mm 5 mps 733 mmHg 55%

    25 March, Monday

    Time Temperature Precipitation Wind Pressure Humidity
    00:00 +32°C° 0 mm 4 mps 733 mmHg 56%
    01:00 +32°C° 0 mm 4 mps 732 mmHg 58%
    02:00 +30°C° 0 mm 4 mps 732 mmHg 59%
    03:00 +30°C° 0 mm 4 mps 731 mmHg 61%
    04:00 +30°C° 0 mm 4 mps 732 mmHg 62%
    05:00 +29°C° 0 mm 4 mps 732 mmHg 64%
    06:00 +29°C° 0 mm 4 mps 732 mmHg 65%
    07:00 +30°C° 0 mm 4 mps 733 mmHg 59%
    08:00 +33°C° 0 mm 5 mps 734 mmHg 53%
    09:00 +34°C° 0 mm 5 mps 734 mmHg 48%
    10:00 +36°C° 0 mm 6 mps 734 mmHg 43%
    11:00 +38°C° 0 mm 7 mps 734 mmHg 38%
    12:00 +40°C° 0 mm 7 mps 733 mmHg 33%
    13:00 +40°C° 0 mm 7 mps 733 mmHg 32%
    14:00 +41°C° 0 mm 6 mps 732 mmHg 31%
    15:00 +41°C° 0 mm 6 mps 731 mmHg 30%
    16:00 +40°C° 0 mm 6 mps 731 mmHg 33%
    17:00 +40°C° 0 mm 6 mps 731 mmHg 35%
    18:00 +39°C° 0 mm 6 mps 731 mmHg 37%
    19:00 +38°C° 0 mm 6 mps 732 mmHg 42%
    20:00 +35°C° 0 mm 6 mps 732 mmHg 46%
    21:00 +34°C° 0 mm 5 mps 733 mmHg 51%
    22:00 +33°C° 0 mm 5 mps 733 mmHg 54%
    23:00 +33°C° 0 mm 5 mps 733 mmHg 56%

    26 March, Tuesday

    Time Temperature Precipitation Wind Pressure Humidity
    00:00 +32°C° 0 mm 5 mps 733 mmHg 59%
    01:00 +32°C° 0 mm 5 mps 732 mmHg 61%
    02:00 +30°C° 0 mm 4 mps 732 mmHg 63%
    03:00 +30°C° 0 mm 4 mps 732 mmHg 65%
    04:00 +30°C° 0 mm 4 mps 732 mmHg 66%
    05:00 +29°C° 0 mm 4 mps 733 mmHg 67%
    06:00 +29°C° 0 mm 3 mps 734 mmHg 68%
    07:00 +30°C° 0 mm 4 mps 735 mmHg 62%
    08:00 +33°C° 0 mm 4 mps 735 mmHg 56%
    09:00 +34°C° 0 mm 5 mps 736 mmHg 50%
    10:00 +35°C° 0 mm 5 mps 736 mmHg 45%
    11:00 +37°C° 0 mm 5 mps 736 mmHg 41%
    12:00 +39°C° 0 mm 5 mps 735 mmHg 36%
    13:00 +40°C° 0 mm 5 mps 735 mmHg 35%
    14:00 +40°C° 0 mm 4 mps 734 mmHg 34%
    15:00 +40°C° 0 mm 3 mps 733 mmHg 33%
    16:00 +41°C° 0 mm 4 mps 734 mmHg 34%
    17:00 +41°C° 0 mm 4 mps 734 mmHg 35%
    18:00 +40°C° 0 mm 4 mps 734 mmHg 36%
    19:00 +38°C° 0 mm 4 mps 735 mmHg 41%
    20:00 +37°C° 0 mm 4 mps 735 mmHg 46%
    21:00 +35°C° 0 mm 5 mps 736 mmHg 52%
    22:00 +35°C° 0 mm 4 mps 736 mmHg 53%
    23:00 +34°C° 0 mm 4 mps 736 mmHg 54%
    Show more